Location: Godiavel Galaoual
(15.2485°N, 12.6604°W)
Time: 06:40:26
(UTC+00:00)

BUGSAT 1 - Pass Details

Date: 04 August 2021
Orbit: 558 x 601 km, 98.1° (Epoch: 27 September)

Event Time Altitude Azimuth Distance (km) Brightness Sun altitude
Rises 05:05:29 0° 14° (NNE) 2,828 ? -20.6°
Reaches altitude 10° 05:07:39 10° 16° (NNE) 1,930 ? -20.2°
Maximum altitude 05:11:50 75° 102° (ESE) 622 ? -19.3°
Enters shadow 05:14:52 18° 185° (S) 1,464 ? -18.6°
